Location: Vale
(35.4830°N, 81.3830°W)
Time: 20:34:18
(UTC-04:00)

SR - All Passes

Search period start: 24 July 2014 00:00
Search period end: 03 August 2014 00:00
Orbit: 575 x 890 km, 66.7° (Epoch: 24 July)

Date Brightness Start Highest point End Pass type
(mag) Time Alt. Az. Time Alt. Az. Time Alt. Az.
24 Jul - 00:26:00 10° WNW 00:30:07 20° WSW 00:34:07 10° SSW visible
24 Jul - 13:10:03 10° SSW 13:15:01 69° ESE 13:20:31 10° NNE daylight
24 Jul - 14:54:32 10° W 14:57:52 17° NW 15:01:23 10° N daylight
24 Jul - 21:54:44 10° N 21:59:59 31° NE 22:05:05 10° ESE visible
24 Jul - 23:36:48 10° NW 23:42:16 39° WSW 23:47:30 10° S visible
25 Jul - 12:22:37 10° S 12:27:03 33° ESE 12:31:53 10° NE daylight
25 Jul - 14:04:43 10° WSW 14:09:13 30° NW 14:14:05 10° N daylight
25 Jul - 21:07:24 10° N 21:11:21 18° NE 21:15:14 10° E visible
25 Jul - 22:48:16 10° NNW 22:54:14 76° WSW 22:59:56 10° SSE visible
26 Jul - 11:36:21 10° SE 11:39:17 16° ESE 11:42:21 10° ENE daylight
26 Jul - 13:15:48 10° SW 13:20:48 57° WNW 13:26:18 10° NNE daylight
26 Jul - 20:22:12 10° NE 20:22:30 10° NE 20:22:48 10° NE daylight
26 Jul - 22:00:07 10° NNW 22:06:01 58° ENE 22:11:40 10° SE visible
26 Jul - 23:43:41 10° WNW 23:47:42 19° WSW 23:51:35 10° SSW visible
27 Jul - 12:27:35 10° SSW 12:32:36 72° ESE 12:38:08 10° NNE daylight
27 Jul - 14:12:09 10° W 14:15:28 17° NW 14:18:57 10° N daylight
27 Jul - 21:12:19 10° N 21:17:36 32° NE 21:22:42 10° ESE visible
27 Jul - 22:54:26 10° NW 22:59:51 38° WSW 23:05:02 10° S visible
28 Jul - 11:40:06 10° S 11:44:37 34° ESE 11:49:31 10° NE daylight
28 Jul - 13:22:18 10° WSW 13:26:49 29° NW 13:31:41 10° N daylight
28 Jul - 20:24:57 10° N 20:28:58 18° NE 20:32:54 10° E daylight
28 Jul - 22:05:52 10° NNW 22:11:50 74° WSW 22:17:30 10° SSE visible
29 Jul - 10:53:45 10° SE 10:56:50 16° ESE 11:00:04 10° ENE daylight
29 Jul - 12:33:21 10° SW 12:38:23 56° WNW 12:43:54 10° NNE daylight
29 Jul - 19:39:17 10° NNE 19:40:07 10° NE 19:40:56 10° NE daylight
29 Jul - 21:17:43 10° NNW 21:23:37 59° ENE 21:29:15 10° SE visible
29 Jul - 23:01:22 10° WNW 23:05:16 19° WSW 23:09:03 10° SW visible
30 Jul - 11:45:07 10° SSW 11:50:10 74° ESE 11:55:44 10° NNE daylight
30 Jul - 13:29:46 10° W 13:33:04 16° NW 13:36:31 10° N daylight
30 Jul - 20:29:53 10° N 20:35:12 32° NE 20:40:19 10° ESE daylight
30 Jul - 22:12:03 10° NW 22:17:26 37° WSW 22:22:33 10° S visible
31 Jul - 10:57:36 10° S 11:02:11 35° ESE 11:07:09 10° NE daylight
31 Jul - 12:39:53 10° WSW 12:44:24 29° NW 12:49:16 10° N daylight
31 Jul - 19:42:30 10° N 19:46:34 19° NE 19:50:33 10° E daylight
31 Jul - 21:23:29 10° NNW 21:29:25 72° WSW 21:35:03 10° SSE visible
01 Aug - 10:11:11 10° SE 10:14:23 17° ESE 10:17:46 10° ENE daylight
01 Aug - 11:50:55 10° SW 11:55:57 54° WNW 12:01:29 10° NNE daylight
01 Aug - 18:56:37 10° NNE 18:57:44 11° NE 18:58:50 10° NE daylight
01 Aug - 20:35:18 10° NNW 20:41:13 60° ENE 20:46:50 10° SE daylight
01 Aug - 22:19:02 10° WNW 22:22:50 18° WSW 22:26:30 10° SW visible
02 Aug - 11:02:39 10° SSW 11:07:44 76° ESE 11:13:21 10° NNE daylight
02 Aug - 12:47:24 10° W 12:50:40 16° NW 12:54:05 10° N daylight
02 Aug - 19:47:28 10° N 19:52:48 33° NE 19:57:55 10° ESE daylight
02 Aug - 21:29:41 10° NW 21:35:00 36° WSW 21:40:04 10° S visible
